Regional Weather Roundup
Issued by NWS

Home | Current Version | Previous Version | Text Only | Print | Product List | Glossary On
Versions: 1 2 3 4 5 6 7 8 9 10 11 12 13 14 15 16 17 18 19 20 21 22 23 24 25 26 27 28 29 30 31 32 33 34 35 36 37 38 39 40 41 42 43 44 45 46 47 48 49 50
000
ASUS44 KJAN 241403
RWRMS

MISSISSIPPI HOURLY WEATHER ROUNDUP
NATIONAL WEATHER SERVICE JACKSON MS
900 AM CDT THU JUL 24 2014

NOTE: "FAIR: INDICATES FEW OR NO CLOUDS BELOW 12,000 FEET WITH NO
SIGNIFICANT WEATHER AND/OR OBSTRUCTIONS TO VISIBILITY.

MSZ001>002-007>008-010>013-018>021-025>028-034>036-241500-
NORTHWEST MISSISSIPPI

CITY           SKY/WX    TMP DP  RH WIND       PRES   REMARKS
CLARKSDALE     PTSUNNY   75  73  94 N7        30.06S
CLEVELAND      FAIR      76  73  90 NE5       30.04S
GREENWOOD      PTSUNNY   75  71  87 NE5       30.04S
GREENVILLE     PTSUNNY   77  73  87 N6        30.04R
GRENADA        FAIR      77  68  73 CALM      30.04S
OLIVE BRANCH   PTSUNNY   72  72 100 N8        30.07R
OXFORD         FAIR      72  68  88 NE3       30.07S
TUNICA         PTSUNNY   73  70  88 N8        30.07R
$$

MSZ003>006-009-014>017-022>024-029>033-037>039-241500-
NORTHEAST MISSISSIPPI

CITY           SKY/WX    TMP DP  RH WIND       PRES   REMARKS
BELMONT        CLOUDY    70  69  97 CALM      30.04S FOG
COLUMBUS AFB   CLOUDY    73  73 100 NW5       30.04R
CORINTH        CLOUDY    72  68  88 N3        30.04S FOG
GOLDN TRIANGLE CLOUDY    73  72  94 N7        30.04R
STARKVILLE     CLOUDY    73  70  88 CALM      30.03S
TUPELO         MOSUNNY   76  70  82 NE7       30.03S
$$

MSZ040-058-241500-
CENTRAL MISSISSIPPI

CITY           SKY/WX    TMP DP  RH WIND       PRES   REMARKS
JACKSON INTL   SUNNY     80  73  79 SW5       30.02S
JACKSON HAWKNS SUNNY     80  72  76 MISG      30.03R
MERIDIAN KEY   MOSUNNY   79  72  79 VRB6      30.02F
MERIDIAN NAS   MOSUNNY   78  72  81 SW6       30.02S
RAYMOND        FAIR      79  73  83 CALM      30.03R
VICKSBURG      CLOUDY    77  73  87 CALM      30.02S
$$

MSZ059>079-241500-
SOUTH MISSISSIPPI

CITY           SKY/WX    TMP DP  RH WIND       PRES   REMARKS
BROOKHAVEN     FAIR      79  73  83 CALM      30.05S
COLUMBIA       FAIR      79  73  83 CALM      30.02S
HATTIESBURG    SUNNY     79  72  79 CALM      30.04S
MCCOMB         SUNNY     78  71  79 CALM      30.04R
NATCHEZ        PTSUNNY   75  72  88 W5        30.04R
PINE BELT      SUNNY     79  72  78 W5        30.05S
$$

MSZ080>082-241500-
COASTAL MISSISSIPPI

CITY           SKY/WX    TMP DP  RH WIND       PRES   REMARKS
BAY ST LOUIS   MOSUNNY  N/A N/A N/A CALM      30.02R
BILOXI         SUNNY     77  73  88 S9        30.02S
PASCAGOULA     SUNNY     81  74  79 CALM      30.02S
GULFPORT       MOSUNNY   81  73  76 SE5       30.01S
$$


USA.gov is the U.S. government's official web portal to all federal, state and local government web resources and services.